Torna al catalogo

QIANFAN-50

AttivoComunicazioniPO
NORAD 62251·PAYLOAD·🇨🇳 China

Lanciato Dec 5, 2024 da Taiyuan Satellite Launch Center

Loading…

Prossimi Passaggi (prossime 24 ore)

TLE

AggiornatoSource: Space-Track

Epoca: Sep 14, 2026, 21:32 UTC

1 62251U 24232Q   26257.89759388  .00000103  00000-0  13978-3 0  9993
2 62251  89.0164  13.5436 0017735 117.2079 243.0882 13.51029077105152

Traccia QIANFAN-50 in tempo reale con AllMySat

Download on the App Store